Weather in Keflavík

Iceland     63°59′57″N   22°33′43″W
temp.,
°C
wind,
m/s
gust,
m/s
humid.,
%
clouds,
%
prec.,
mm/h
press.,
hPa
HPBL,
m
28 february, sun
sun2800:00+5ssw172175100 0.7 10051919
03:00+4sw162172100 0.5 10061890
06:00+4sw162070100 0.9 10082018
09:00+3sw162265100 0.8 10082245
12:00+3sw182378100 1.4 10081966
15:00+4sw172174100 0.3 10091947
18:00+4sw141872100 0.6 10111727
21:00+4sw101371100 0.4 10131380
1 march, mon
mon100:00+4sw91272100 0.7 10141252
03:00+4sw9117293 0.3 10151266
06:00+4sw9117197 0.5 10161213
09:00+4sw8107190 0.1 10181157
12:00+4sw787295 0.3 10201108
15:00+4ssw786983 0.1 10211127
18:00+4ssw566791 0.1 1021977
21:00+4s5670100 0.0 1021720
2 march, tue
tue200:00+4sse5775100 0.0 1021779
03:00+3ene4597100 0.4 1019269
06:00+4se6888100 1.6 1019299
09:00+5se8109098 0.1 1019244
12:00+5se689299 0.1 1020194
15:00+6ese4689100 0.1 1020147
18:00+6e4588100 0.1 102093
21:00+6e5788100 0.1 1022160
3 march, wed
wed300:00+5ene5888100 0.1 1024193
03:00+5ene6987100 0.2 1025279
06:00+5ene71084100 1.4 1026474
09:00+5ese71287100 2.1 1029632
12:00+4se121691100 2.3 1031758
15:00+3se14188898 0.1 1032669
18:00+3se12168583 0.1 1033701
21:00+3se121682100 0.0 1035659
4 march, thu
thu400:00+3se101480100 0.0 1036660
03:00+2se101482100 0.0 1035648
06:00+2ese9137899 0.0 1034529
09:00+2se91379100 0.0 1033478
12:00+3se101480100 0.0 1032567
15:00+3se101481100 0.0 1031629
18:00+4se101484100 0.0 1029693
21:00+3ese101383100 0.0 1028705